Weather Roundup
Issued by NWS Springfield, MO

Home | Current Version | Previous Version | Text Only | Print | Product List | Glossary On
Versions: 1 2 3 4 5 6 7 8 9 10 11 12 13 14 15 16 17 18 19 20 21 22 23 24 25 26 27 28 29 30 31 32 33 34 35 36 37 38 39 40 41 42 43 44 45 46 47 48 49 50
000
NZUS99 KSGF 191207
HRRSGF

HOURLY WEATHER
NATIONAL WEATHER SERVICE SPRINGFIELD MO
700 AM CDT FRI SEP 19 2014

......SGF CWA......

CITY           SKY/WX    TMP DP  RH WIND       PRES   REMARKS
SPRINGFIELD    CLEAR     61  59  93 SE8       30.03S
6HR MIN TEMP:  60; 6HR MAX TEMP:  63;

JOPLIN         CLEAR     63  61  93 SE5       30.01S
6HR MIN TEMP:  62; 6HR MAX TEMP:  63;

WEST PLAINS    FOG       53  51  93 NE3       30.08R VSB 1/4
6HR MIN TEMP:  53; 6HR MAX TEMP:  57;

ROLLA          CLEAR     55  54  96 E9        30.06R FOG
6HR MIN TEMP:  55; 6HR MAX TEMP:  58;

OSAGE BEACH    PTCLDY    55  52  88 CALM      30.06S
BRANSON        CLOUDY    63  63 100 CALM      30.06R FOG

......SURROUNDING SGF CWA......

CITY           SKY/WX    TMP DP  RH WIND       PRES   REMARKS
CHANUTE        MOCLDY    62  62 100 SE7       30.01R
PARSONS        MOCLDY    64  63  96 CALM      30.01S
COFFEYVILLE    CLEAR     63  61  93 CALM      30.00R
EMPORIA        FOG       63  63 100 S13       29.99S VSB 1/2
GROVE OK       CLEAR     63  63 100 CALM      30.02R FOG
ROGERS AR      CLOUDY    64  61  90 SE8       30.04R
SILOAM SPRINGS CLOUDY    63  57  82 E3        30.04R
HARRISON AR    FOG       61  61 100 E5        30.05R VSB 1/4
NEAR YELLVILLE   N/A     61  57  88 CALM      30.05R VSB 1/2

......KANSAS AND MISSOURI......

CITY           SKY/WX    TMP DP  RH WIND       PRES   REMARKS
KANSAS CTY INT CLOUDY    62  61  96 SE9       30.02R
DOWNTOWN KC    CLOUDY    64  61  90 S6        30.02R
COLUMBIA       CLEAR     56  54  93 SE5       30.06
SEDALIA        FOG       61  60  97 SE7       30.06R VSB 1/2
ST JOSEPH      CLOUDY    62  61  96 SE7       30.01S FOG
ST LOUIS       PTCLDY    56  52  86 E5        30.09S
SPIRIT OF STL  CLEAR     50  49  96 CALM      30.08R
KIRKSVILLE     PTCLDY    53  50  89 SE5       30.08R
WICHITA        PTCLDY    65  62  90 S6        29.97R
TOPEKA         CLOUDY    64  63  96 SE7       30.00R
OLATHE         CLOUDY    61  61 100 SE7       30.01S FOG

......TENNESSEE......

CITY           SKY/WX    TMP DP  RH WIND       PRES   REMARKS
MEMPHIS        FOG       67  65  93 NE5       30.01R VSB 1
NASHVILLE      PTCLDY    60  57  89 E3        30.06R

......ARKANSAS.......

CITY           SKY/WX    TMP DP  RH WIND       PRES   REMARKS
FAYETTEVILLE   CLEAR     61  61 100 CALM      30.03R FOG
FT SMITH       CLOUDY    69  64  84 E5        30.00R
LITTLE ROCK    MOCLDY    67  62  84 N3        30.01R

......OKLAHOMA.......

CITY           SKY/WX    TMP DP  RH WIND       PRES   REMARKS
TULSA          CLOUDY    69  67  93 SE6       29.98S FOG
PONCA CITY     CLEAR     65  63  93 SE6       29.97R
MCALESTER      CLOUDY    70  68  93 CALM      29.99R
OKLAHOMA CITY  PTCLDY    66  64  93 SE3       29.98R

......IOWA............

CITY           SKY/WX    TMP DP  RH WIND       PRES   REMARKS
DES MOINES     PTCLDY    56  53  90 S7        30.02R
QUAD CITIES    CLEAR     50  48  93 NE5       30.11R FOG

......ILLINOIS........

CITY           SKY/WX    TMP DP  RH WIND       PRES   REMARKS
QUINCY         CLEAR     53  50  89 SE6       30.09R
CHICAGO        PTCLDY    54  49  83 S8        30.15F




USA.gov is the U.S. government's official web portal to all federal, state and local government web resources and services.